Flag for U.S.A. Weather past 2 weeks in Clovis, New Mexico, U.S.A.

Now
56 °F

Clear.


Feels Like: 55 °F
Forecast: 50 / 82 °F
Wind: 7 mph from West

Location: Cannon Air Force Base / Clovis

Current Time: Mar 31, 2015 at 12:43:26 AM

Latest Report: Mar 30, 2015 at 11:58 PM


Visibility: 10 mi

Pressure: 29.95 "Hg

Humidity: 55%

Dew point: 40 °F

Location of ClovisLocation

Historic Weather in Clovis — Graph

°F

Clovis temperature yesterday

Maximum temperature yesterday: 80 °F (at 4:58 PM)
Minimum temperature yesterday: 45 °F (at 3:58 AM)
Average temperature yesterday: 62 °F

Past Weeks' High & Low Weather Summary

 TemperatureHumidityPressure
High81 °F (Mar 28, 2:58 PM)99% (Mar 22, 12:58 AM)30.32 "Hg (Mar 22, 12:58 AM)
Low31 °F (Mar 26, 6:58 AM)9% (Mar 24, 1:58 PM)29.73 "Hg (Mar 25, 4:58 AM)
Average55 °F51%30.01 "Hg
* Reported Mar 15 10:58 PM — Mar 30 10:58 PM, Clovis, Weather by CustomWeather, © 2015

Note: Actual official high and low records may vary slightly from our data, if they occured in-between our weather recording intervals... More about our weather records

Advertising

Clovis weather history for previous 24 hours

 ConditionsComfort  
Time TempWeatherWind HumidityBarometerVisibility
10:58 PM
Mon, Mar 30
58 °FClear.1 mph56%29.96 "Hg10 mi
9:58 PM56 °FClear.2 mph59%29.98 "Hg10 mi
8:58 PM60 °FClear.8 mph52%29.98 "Hg10 mi
7:58 PM64 °FSunny.7 mph43%29.98 "Hg10 mi
6:58 PM74 °FSunny.12 mph23%29.94 "Hg10 mi
5:58 PM80 °FSunny.17 mph17%29.93 "Hg10 mi
4:58 PM80 °FSunny.13 mph16%29.93 "Hg10 mi
3:58 PM78 °FPassing clouds.10 mph19%29.97 "Hg10 mi
2:58 PM76 °FScattered clouds.16 mph22%29.99 "Hg10 mi
1:58 PM75 °FPassing clouds.15 mph23%30.03 "Hg10 mi
12:58 PM71 °FScattered clouds.15 mph26%30.08 "Hg10 mi
11:46 AM68 °FScattered clouds.14 mph26%30.23 "Hg10 mi
9:58 AM62 °FSunny.13 mph35%30.17 "Hg10 mi
7:58 AM51 °FSunny.1 mph47%30.16 "Hg10 mi
6:58 AM47 °FClear.5 mph48%30.16 "Hg10 mi
5:58 AM45 °FClear.5 mph59%30.16 "Hg10 mi
4:58 AM47 °FClear.3 mph47%30.14 "Hg10 mi
3:58 AM45 °FClear.7 mph53%30.16 "Hg10 mi
1:58 AM53 °FClear.12 mph34%30.10 "Hg10 mi
12:58 AM54 °FClear.13 mph33%30.11 "Hg10 mi
Weather by CustomWeather, © 2015

See weather overviewHow to use our weather pages